Aviation Digital Data Service (ADDS)

Output produced by METARs form (2052 UTC 24 June 2018)
found at http://www.aviationweather.gov/adds/metars/
 
LGAD 242020Z 00000KT 9999 FEW020 21/15 Q1013
TAF LGAD 242000Z 2421/2506 05008KT 9999 SCT025 SCT080 
     PROB40 
     TEMPO 2422/2506 7000 RA SCT025 BKN080 
     PROB40 
     TEMPO 2423/2506 5000 SHRA FEW018CB SCT025 BKN070
       
LGAL 241920Z 03007KT 9999 FEW035 18/14 Q1016
TAF LGAL 242000Z 2421/2506 04015KT 9999 FEW030 
     TEMPO 2421/2506 04015G25KT
       
LGAV 242020Z 02010KT 9999 SCT025 21/14 Q1015 NOSIG
TAF LGAV 241700Z 2418/2518 02015G25KT 9999 SCT030 BKN070 
     PROB40 
     TEMPO 2418/2421 5000 TSRA FEW018CB SCT025 BKN070 
     PROB30 
     TEMPO 2512/2518 5000 SHRA FEW018CB SCT025 BKN070 
     BECMG 2506/2508 02020G30KT
       
LGBL 241950Z 30004KT 9999 FEW015 SCT030 BKN070 20/16 Q1015
TAF LGBL 242000Z 2421/2506 26006KT 8000 FEW010 BKN020 BKN080 
     PROB40 
     TEMPO 2421/2506 5000 RA SCT010 BKN020
       
LGEL 242020Z 33006KT 9999 SCT070 22/15 Q1014
TAF LGEL 241700Z 2418/2518 33012KT 9999 FEW025 SCT070 
     TEMPO 2418/2421 33012G22KT 7000 RA SCT015 BKN070 
     PROB40 
     TEMPO 2418/2421 5000 TSRA FEW018CB SCT020 BKN070 
     TEMPO 2512/2518 33012G22KT 
     PROB30 
     TEMPO 2512/2518 5000 SHRA FEW018CB SCT020 BKN070
       
LGHI 241850Z VRB02KT CAVOK 24/17 Q1010
TAF LGHI 242000Z 2421/2506 02015KT 9999 FEW025
       
LGIO 241920Z /////KT 9999 SCT035TCU 21/15 Q1014
TAF LGIO 242000Z 2421/2506 VRB03KT 9999 SCT030 SCT080 
     PROB30 
     TEMPO 2421/2506 7000 SHRA FEW020CB BKN030 BKN080
       
LGIR 242020Z 32006KT 9999 SCT020 24/21 Q1013 NOSIG
TAF LGIR 241700Z 2418/2518 34010KT 9999 SCT020 
     PROB30 2512/2518 FEW018CB
       
LGKC 241650Z 06009KT 9999 FEW025 SCT030 23/18 Q1014
TAF LGKC 242000Z 2421/2506 06012KT 9999 FEW020 SCT030 
     PROB30 
     TEMPO 2500/2506 5000 RA SCT015 BKN025
       
LGKF 241950Z 33005KT 9999 FEW018 22/18 Q1013
TAF LGKF 242000Z 2421/2506 34012KT 9999 FEW018 SCT080 
     PROB30 
     TEMPO 2500/2506 5000 RA SCT015 BKN070 
     PROB30 
     TEMPO 2503/2506 3000 TSRA FEW018CB SCT020 BKN070 
     BECMG 2501/2503 12008KT
       
LGKL 242020Z 00000KT 9999 FEW020 SCT030 22/18 Q1013
TAF LGKL 242000Z 2421/2506 VRB03KT 9999 SCT025 SCT080 
     PROB40 
     TEMPO 2422/2506 7000 RA SCT025 BKN080 
     PROB30 
     TEMPO 2500/2506 5000 SHRA FEW018CB SCT025 BKN070
       
LGKO 242020Z 35009KT 9999 FEW016 23/18 Q1011
TAF LGKO 241700Z 2418/2518 31015KT 9999 FEW030
       
LGKP 242020Z AUTO 29018KT //// // ////// 24/20 Q1010 RE//
TAF LGKP 242000Z 2421/2506 30020KT 9999 FEW020
       
LGKR 242020Z 23002KT 9999 FEW030 SCT080 22/14 Q1012 NOSIG
TAF LGKR 241700Z 2418/2518 31012KT 9999 FEW020 SCT080 
     BECMG 2419/2421 11015KT 
     PROB30 
     TEMPO 2500/2512 5000 RA SCT020 BKN030 
     PROB40 
     TEMPO 2509/2518 4000 TSRA SCT015 FEW018CB BKN030
       
LGKV 242020Z 01004KT 9999 FEW030 19/15 Q1016
TAF LGKV 242000Z 2421/2506 10008KT 9999 FEW030 SCT080 
     PROB30 
     TEMPO 2421/2424 5000 SHRA FEW018CB SCT025 BKN070 
     BECMG 2421/2423 04010KT
       
LGKZ 241750Z 00000KT 9999 SCT025 SCT070 16/07 Q1017
LGLM 242020Z AUTO 04013KT //// // ////// 20/16 Q1015 RE//
TAF LGLM 242000Z 2421/2506 04015KT 9999 FEW020 
     TEMPO 2500/2506 04015G25KT
       
TAF LGLR 242000Z 2421/2506 VRB03KT 9999 FEW010 BKN020 BKN080 
     PROB30 
     TEMPO 2421/2506 8000 RA
       
LGMK 242020Z 36018KT 9999 FEW008 20/18 Q1013
TAF LGMK 242000Z 2421/2506 35018KT 9999 FEW008 FEW018 
     TEMPO 2421/2424 35018G28KT
       
LGMT 241950Z VRB03KT CAVOK 24/17 Q1012
TAF LGMT 242000Z 2421/2506 35012KT 9999 FEW025
       
LGNX 241550Z 02015KT 9999 FEW025 24/18 Q1012
LGPA 242020Z AUTO 35011KT //// // ////// 22/17 Q1013 RE//
LGPZ 241950Z VRB03KT 9999 FEW020TCU 23/17 Q1013 RMK SCT080 BLU
TAF LGPZ 241700Z 2418/2518 27015KT 9999 FEW020 SCT080 
     BECMG 2418/2420 08010KT 
     PROB30 
     TEMPO 2500/2512 5000 RA SCT020 BKN080 
     PROB40 
     TEMPO 2509/2518 4000 TSRA SCT012 FEW018CB BKN030
       
LGRP 242020Z 24010KT CAVOK 25/22 Q1009 NOSIG
TAF LGRP 241700Z 2418/2518 25018KT 9999 FEW020
       
LGRX 241950Z 05004KT 9999 FEW025 24/17 Q1013 RMK FEW080 BLU
TAF LGRX 242000Z 2421/2506 05010KT 9999 SCT025 SCT080 
     PROB40 
     TEMPO 2422/2506 7000 RA SCT025 BKN070 
     PROB40 
     TEMPO 2423/2506 5000 SHRA FEW018CB SCT025 BKN070
       
LGSA 242020Z 00000KT 9999 FEW025 23/20 Q1013
TAF LGSA 241700Z 2418/2518 02015KT 9999 SCT025 
     PROB30 2512/2518 FEW018CB
       
LGSK 241920Z 00000KT 9999 FEW020 21/15 Q1015
TAF LGSK 242000Z 2421/2506 04015KT 9999 FEW020 SCT060 
     PROB30 
     TEMPO 2500/2506 5000 RA SCT015 BKN030
       
LGSM 241850Z 36008KT 330V030 CAVOK 25/17 Q1010
TAF LGSM 242000Z 2421/2506 36012KT 9999 FEW025
       
LGSR 242020Z 34016KT 9999 FEW025 23/17 Q1012
TAF LGSR 241700Z 2418/2518 35016KT 9999 FEW018
       
TAF LGST 242000Z 2421/2506 29018KT 9999 SCT018
       
TAF LGSY 242000Z 2421/2506 02015KT 9999 FEW010 BKN020 
     TEMPO 2501/2506 02015G25KT
       
TAF LGTG 242000Z 2421/2506 30006KT 9999 FEW010 SCT020 SCT070 
     BECMG 2423/2501 FEW010 BKN020 BKN070 
     PROB30 
     TEMPO 2501/2506 8000 RA
       
TAF LGTL 242000Z 2421/2506 35008KT 9999 FEW010 SCT020 
     PROB30 
     TEMPO 2500/2506 5000 BR SCT008 SCT020
       
LGTS 242020Z VRB03KT 9999 FEW025 20/13 Q1016 NOSIG
TAF LGTS 241700Z 2418/2518 VRB03KT 9999 SCT030 
     BECMG 2502/2504 FEW015 BKN030 
     PROB40 
     TEMPO 2504/2518 7000 RA 
     PROB30 
     TEMPO 2515/2518 5000 SHRA FEW020CB BKN025 
     BECMG 2516/2518 34015KT
       
LGZA 241920Z 00000KT 9999 FEW020 SCT070 23/20 Q1013
TAF LGZA 242000Z 2421/2506 34010KT 9999 FEW020 SCT080 
     PROB30 
     TEMPO 2500/2506 5000 RA SCT015 BKN070 
     PROB30 
     TEMPO 2503/2506 3000 TSRA FEW018CB SCT020 BKN070 
     BECMG 2500/2502 04008KT 
     BECMG 2504/2506 11008KT
       
LGPZ 241950Z VRB03KT 9999 FEW020TCU 23/17 Q1013 RMK SCT080 BLU
TAF LGPZ 241700Z 2418/2518 27015KT 9999 FEW020 SCT080 
     BECMG 2418/2420 08010KT 
     PROB30 
     TEMPO 2500/2512 5000 RA SCT020 BKN080 
     PROB40 
     TEMPO 2509/2518 4000 TSRA SCT012 FEW018CB BKN030
       
LGKC 241650Z 06009KT 9999 FEW025 SCT030 23/18 Q1014
TAF LGKC 242000Z 2421/2506 06012KT 9999 FEW020 SCT030 
     PROB30 
     TEMPO 2500/2506 5000 RA SCT015 BKN025
       
LGKF 241950Z 33005KT 9999 FEW018 22/18 Q1013
TAF LGKF 242000Z 2421/2506 34012KT 9999 FEW018 SCT080 
     PROB30 
     TEMPO 2500/2506 5000 RA SCT015 BKN070 
     PROB30 
     TEMPO 2503/2506 3000 TSRA FEW018CB SCT020 BKN070 
     BECMG 2501/2503 12008KT
       
LGKL 242020Z 00000KT 9999 FEW020 SCT030 22/18 Q1013
TAF LGKL 242000Z 2421/2506 VRB03KT 9999 SCT025 SCT080 
     PROB40 
     TEMPO 2422/2506 7000 RA SCT025 BKN080 
     PROB30 
     TEMPO 2500/2506 5000 SHRA FEW018CB SCT025 BKN070
       
LGKO 242020Z 35009KT 9999 FEW016 23/18 Q1011
TAF LGKO 241700Z 2418/2518 31015KT 9999 FEW030
       
LGKP 242020Z AUTO 29018KT //// // ////// 24/20 Q1010 RE//
TAF LGKP 242000Z 2421/2506 30020KT 9999 FEW020
       
LGKR 242020Z 23002KT 9999 FEW030 SCT080 22/14 Q1012 NOSIG
TAF LGKR 241700Z 2418/2518 31012KT 9999 FEW020 SCT080 
     BECMG 2419/2421 11015KT 
     PROB30 
     TEMPO 2500/2512 5000 RA SCT020 BKN030 
     PROB40 
     TEMPO 2509/2518 4000 TSRA SCT015 FEW018CB BKN030
       
LGKV 242020Z 01004KT 9999 FEW030 19/15 Q1016
TAF LGKV 242000Z 2421/2506 10008KT 9999 FEW030 SCT080 
     PROB30 
     TEMPO 2421/2424 5000 SHRA FEW018CB SCT025 BKN070 
     BECMG 2421/2423 04010KT
       
LGKZ 241750Z 00000KT 9999 SCT025 SCT070 16/07 Q1017
LGAD 242020Z 00000KT 9999 FEW020 21/15 Q1013
TAF LGAD 242000Z 2421/2506 05008KT 9999 SCT025 SCT080 
     PROB40 
     TEMPO 2422/2506 7000 RA SCT025 BKN080 
     PROB40 
     TEMPO 2423/2506 5000 SHRA FEW018CB SCT025 BKN070
       
LGRX 241950Z 05004KT 9999 FEW025 24/17 Q1013 RMK FEW080 BLU
TAF LGRX 242000Z 2421/2506 05010KT 9999 SCT025 SCT080 
     PROB40 
     TEMPO 2422/2506 7000 RA SCT025 BKN070 
     PROB40 
     TEMPO 2423/2506 5000 SHRA FEW018CB SCT025 BKN070
       
LGHI 241850Z VRB02KT CAVOK 24/17 Q1010
TAF LGHI 242000Z 2421/2506 02015KT 9999 FEW025
       
LGRP 242020Z 24010KT CAVOK 25/22 Q1009 NOSIG
TAF LGRP 241700Z 2418/2518 25018KT 9999 FEW020
       
LGAL 241920Z 03007KT 9999 FEW035 18/14 Q1016
TAF LGAL 242000Z 2421/2506 04015KT 9999 FEW030 
     TEMPO 2421/2506 04015G25KT
       
LGEL 242020Z 33006KT 9999 SCT070 22/15 Q1014
TAF LGEL 241700Z 2418/2518 33012KT 9999 FEW025 SCT070 
     TEMPO 2418/2421 33012G22KT 7000 RA SCT015 BKN070 
     PROB40 
     TEMPO 2418/2421 5000 TSRA FEW018CB SCT020 BKN070 
     TEMPO 2512/2518 33012G22KT 
     PROB30 
     TEMPO 2512/2518 5000 SHRA FEW018CB SCT020 BKN070
       
LGAV 242020Z 02010KT 9999 SCT025 21/14 Q1015 NOSIG
TAF LGAV 241700Z 2418/2518 02015G25KT 9999 SCT030 BKN070 
     PROB40 
     TEMPO 2418/2421 5000 TSRA FEW018CB SCT025 BKN070 
     PROB30 
     TEMPO 2512/2518 5000 SHRA FEW018CB SCT025 BKN070 
     BECMG 2506/2508 02020G30KT
       
LGKZ 241750Z 00000KT 9999 SCT025 SCT070 16/07 Q1017
LGIO 241920Z /////KT 9999 SCT035TCU 21/15 Q1014
TAF LGIO 242000Z 2421/2506 VRB03KT 9999 SCT030 SCT080 
     PROB30 
     TEMPO 2421/2506 7000 SHRA FEW020CB BKN030 BKN080
       
LGKR 242020Z 23002KT 9999 FEW030 SCT080 22/14 Q1012 NOSIG
TAF LGKR 241700Z 2418/2518 31012KT 9999 FEW020 SCT080 
     BECMG 2419/2421 11015KT 
     PROB30 
     TEMPO 2500/2512 5000 RA SCT020 BKN030 
     PROB40 
     TEMPO 2509/2518 4000 TSRA SCT015 FEW018CB BKN030
       
LGKL 242020Z 00000KT 9999 FEW020 SCT030 22/18 Q1013
TAF LGKL 242000Z 2421/2506 VRB03KT 9999 SCT025 SCT080 
     PROB40 
     TEMPO 2422/2506 7000 RA SCT025 BKN080 
     PROB30 
     TEMPO 2500/2506 5000 SHRA FEW018CB SCT025 BKN070
       
LGKP 242020Z AUTO 29018KT //// // ////// 24/20 Q1010 RE//
TAF LGKP 242000Z 2421/2506 30020KT 9999 FEW020
       
TAF LGTL 242000Z 2421/2506 35008KT 9999 FEW010 SCT020 
     PROB30 
     TEMPO 2500/2506 5000 BR SCT008 SCT020
       
LGKF 241950Z 33005KT 9999 FEW018 22/18 Q1013
TAF LGKF 242000Z 2421/2506 34012KT 9999 FEW018 SCT080 
     PROB30 
     TEMPO 2500/2506 5000 RA SCT015 BKN070 
     PROB30 
     TEMPO 2503/2506 3000 TSRA FEW018CB SCT020 BKN070 
     BECMG 2501/2503 12008KT
       
LGKC 241650Z 06009KT 9999 FEW025 SCT030 23/18 Q1014
TAF LGKC 242000Z 2421/2506 06012KT 9999 FEW020 SCT030 
     PROB30 
     TEMPO 2500/2506 5000 RA SCT015 BKN025
       
LGKO 242020Z 35009KT 9999 FEW016 23/18 Q1011
TAF LGKO 241700Z 2418/2518 31015KT 9999 FEW030
       
TAF LGLR 242000Z 2421/2506 VRB03KT 9999 FEW010 BKN020 BKN080 
     PROB30 
     TEMPO 2421/2506 8000 RA
       
LGLM 242020Z AUTO 04013KT //// // ////// 20/16 Q1015 RE//
TAF LGLM 242000Z 2421/2506 04015KT 9999 FEW020 
     TEMPO 2500/2506 04015G25KT
       
LGTS 242020Z VRB03KT 9999 FEW025 20/13 Q1016 NOSIG
TAF LGTS 241700Z 2418/2518 VRB03KT 9999 SCT030 
     BECMG 2502/2504 FEW015 BKN030 
     PROB40 
     TEMPO 2504/2518 7000 RA 
     PROB30 
     TEMPO 2515/2518 5000 SHRA FEW020CB BKN025 
     BECMG 2516/2518 34015KT
       
LGKV 242020Z 01004KT 9999 FEW030 19/15 Q1016
TAF LGKV 242000Z 2421/2506 10008KT 9999 FEW030 SCT080 
     PROB30 
     TEMPO 2421/2424 5000 SHRA FEW018CB SCT025 BKN070 
     BECMG 2421/2423 04010KT
       
LGMK 242020Z 36018KT 9999 FEW008 20/18 Q1013
TAF LGMK 242000Z 2421/2506 35018KT 9999 FEW008 FEW018 
     TEMPO 2421/2424 35018G28KT
       
LGMT 241950Z VRB03KT CAVOK 24/17 Q1012
TAF LGMT 242000Z 2421/2506 35012KT 9999 FEW025
       
LGBL 241950Z 30004KT 9999 FEW015 SCT030 BKN070 20/16 Q1015
TAF LGBL 242000Z 2421/2506 26006KT 8000 FEW010 BKN020 BKN080 
     PROB40 
     TEMPO 2421/2506 5000 RA SCT010 BKN020
       
LGIR 242020Z 32006KT 9999 SCT020 24/21 Q1013 NOSIG
TAF LGIR 241700Z 2418/2518 34010KT 9999 SCT020 
     PROB30 2512/2518 FEW018CB
       
LGAD 242020Z 00000KT 9999 FEW020 21/15 Q1013
TAF LGAD 242000Z 2421/2506 05008KT 9999 SCT025 SCT080 
     PROB40 
     TEMPO 2422/2506 7000 RA SCT025 BKN080 
     PROB40 
     TEMPO 2423/2506 5000 SHRA FEW018CB SCT025 BKN070
       
LGAL 241920Z 03007KT 9999 FEW035 18/14 Q1016
TAF LGAL 242000Z 2421/2506 04015KT 9999 FEW030 
     TEMPO 2421/2506 04015G25KT
       
LGAV 242020Z 02010KT 9999 SCT025 21/14 Q1015 NOSIG
TAF LGAV 241700Z 2418/2518 02015G25KT 9999 SCT030 BKN070 
     PROB40 
     TEMPO 2418/2421 5000 TSRA FEW018CB SCT025 BKN070 
     PROB30 
     TEMPO 2512/2518 5000 SHRA FEW018CB SCT025 BKN070 
     BECMG 2506/2508 02020G30KT
       
LGBL 241950Z 30004KT 9999 FEW015 SCT030 BKN070 20/16 Q1015
TAF LGBL 242000Z 2421/2506 26006KT 8000 FEW010 BKN020 BKN080 
     PROB40 
     TEMPO 2421/2506 5000 RA SCT010 BKN020
       
LGEL 242020Z 33006KT 9999 SCT070 22/15 Q1014
TAF LGEL 241700Z 2418/2518 33012KT 9999 FEW025 SCT070 
     TEMPO 2418/2421 33012G22KT 7000 RA SCT015 BKN070 
     PROB40 
     TEMPO 2418/2421 5000 TSRA FEW018CB SCT020 BKN070 
     TEMPO 2512/2518 33012G22KT 
     PROB30 
     TEMPO 2512/2518 5000 SHRA FEW018CB SCT020 BKN070
       
LGHI 241850Z VRB02KT CAVOK 24/17 Q1010
TAF LGHI 242000Z 2421/2506 02015KT 9999 FEW025
       
LGIO 241920Z /////KT 9999 SCT035TCU 21/15 Q1014
TAF LGIO 242000Z 2421/2506 VRB03KT 9999 SCT030 SCT080 
     PROB30 
     TEMPO 2421/2506 7000 SHRA FEW020CB BKN030 BKN080
       
LGIR 242020Z 32006KT 9999 SCT020 24/21 Q1013 NOSIG
TAF LGIR 241700Z 2418/2518 34010KT 9999 SCT020 
     PROB30 2512/2518 FEW018CB
       
LGKC 241650Z 06009KT 9999 FEW025 SCT030 23/18 Q1014
TAF LGKC 242000Z 2421/2506 06012KT 9999 FEW020 SCT030 
     PROB30 
     TEMPO 2500/2506 5000 RA SCT015 BKN025
       
LGKF 241950Z 33005KT 9999 FEW018 22/18 Q1013
TAF LGKF 242000Z 2421/2506 34012KT 9999 FEW018 SCT080 
     PROB30 
     TEMPO 2500/2506 5000 RA SCT015 BKN070 
     PROB30 
     TEMPO 2503/2506 3000 TSRA FEW018CB SCT020 BKN070 
     BECMG 2501/2503 12008KT
       
LGKL 242020Z 00000KT 9999 FEW020 SCT030 22/18 Q1013
TAF LGKL 242000Z 2421/2506 VRB03KT 9999 SCT025 SCT080 
     PROB40 
     TEMPO 2422/2506 7000 RA SCT025 BKN080 
     PROB30 
     TEMPO 2500/2506 5000 SHRA FEW018CB SCT025 BKN070
       
LGKO 242020Z 35009KT 9999 FEW016 23/18 Q1011
TAF LGKO 241700Z 2418/2518 31015KT 9999 FEW030
       
LGKP 242020Z AUTO 29018KT //// // ////// 24/20 Q1010 RE//
TAF LGKP 242000Z 2421/2506 30020KT 9999 FEW020
       
LGKR 242020Z 23002KT 9999 FEW030 SCT080 22/14 Q1012 NOSIG
TAF LGKR 241700Z 2418/2518 31012KT 9999 FEW020 SCT080 
     BECMG 2419/2421 11015KT 
     PROB30 
     TEMPO 2500/2512 5000 RA SCT020 BKN030 
     PROB40 
     TEMPO 2509/2518 4000 TSRA SCT015 FEW018CB BKN030
       
LGKV 242020Z 01004KT 9999 FEW030 19/15 Q1016
TAF LGKV 242000Z 2421/2506 10008KT 9999 FEW030 SCT080 
     PROB30 
     TEMPO 2421/2424 5000 SHRA FEW018CB SCT025 BKN070 
     BECMG 2421/2423 04010KT
       
LGKZ 241750Z 00000KT 9999 SCT025 SCT070 16/07 Q1017
LGLM 242020Z AUTO 04013KT //// // ////// 20/16 Q1015 RE//
TAF LGLM 242000Z 2421/2506 04015KT 9999 FEW020 
     TEMPO 2500/2506 04015G25KT
       
TAF LGLR 242000Z 2421/2506 VRB03KT 9999 FEW010 BKN020 BKN080 
     PROB30 
     TEMPO 2421/2506 8000 RA
       
LGMK 242020Z 36018KT 9999 FEW008 20/18 Q1013
TAF LGMK 242000Z 2421/2506 35018KT 9999 FEW008 FEW018 
     TEMPO 2421/2424 35018G28KT
       
LGMT 241950Z VRB03KT CAVOK 24/17 Q1012
TAF LGMT 242000Z 2421/2506 35012KT 9999 FEW025
       
LGNX 241550Z 02015KT 9999 FEW025 24/18 Q1012
LGPA 242020Z AUTO 35011KT //// // ////// 22/17 Q1013 RE//
LGPZ 241950Z VRB03KT 9999 FEW020TCU 23/17 Q1013 RMK SCT080 BLU
TAF LGPZ 241700Z 2418/2518 27015KT 9999 FEW020 SCT080 
     BECMG 2418/2420 08010KT 
     PROB30 
     TEMPO 2500/2512 5000 RA SCT020 BKN080 
     PROB40 
     TEMPO 2509/2518 4000 TSRA SCT012 FEW018CB BKN030
       
LGRP 242020Z 24010KT CAVOK 25/22 Q1009 NOSIG
TAF LGRP 241700Z 2418/2518 25018KT 9999 FEW020
       
LGRX 241950Z 05004KT 9999 FEW025 24/17 Q1013 RMK FEW080 BLU
TAF LGRX 242000Z 2421/2506 05010KT 9999 SCT025 SCT080 
     PROB40 
     TEMPO 2422/2506 7000 RA SCT025 BKN070 
     PROB40 
     TEMPO 2423/2506 5000 SHRA FEW018CB SCT025 BKN070
       
LGSA 242020Z 00000KT 9999 FEW025 23/20 Q1013
TAF LGSA 241700Z 2418/2518 02015KT 9999 SCT025 
     PROB30 2512/2518 FEW018CB
       
LGSK 241920Z 00000KT 9999 FEW020 21/15 Q1015
TAF LGSK 242000Z 2421/2506 04015KT 9999 FEW020 SCT060 
     PROB30 
     TEMPO 2500/2506 5000 RA SCT015 BKN030
       
LGSM 241850Z 36008KT 330V030 CAVOK 25/17 Q1010
TAF LGSM 242000Z 2421/2506 36012KT 9999 FEW025
       
LGSR 242020Z 34016KT 9999 FEW025 23/17 Q1012
TAF LGSR 241700Z 2418/2518 35016KT 9999 FEW018
       
TAF LGST 242000Z 2421/2506 29018KT 9999 SCT018
       
TAF LGSY 242000Z 2421/2506 02015KT 9999 FEW010 BKN020 
     TEMPO 2501/2506 02015G25KT
       
TAF LGTG 242000Z 2421/2506 30006KT 9999 FEW010 SCT020 SCT070 
     BECMG 2423/2501 FEW010 BKN020 BKN070 
     PROB30 
     TEMPO 2501/2506 8000 RA
       
TAF LGTL 242000Z 2421/2506 35008KT 9999 FEW010 SCT020 
     PROB30 
     TEMPO 2500/2506 5000 BR SCT008 SCT020
       
LGTS 242020Z VRB03KT 9999 FEW025 20/13 Q1016 NOSIG
TAF LGTS 241700Z 2418/2518 VRB03KT 9999 SCT030 
     BECMG 2502/2504 FEW015 BKN030 
     PROB40 
     TEMPO 2504/2518 7000 RA 
     PROB30 
     TEMPO 2515/2518 5000 SHRA FEW020CB BKN025 
     BECMG 2516/2518 34015KT
       
LGZA 241920Z 00000KT 9999 FEW020 SCT070 23/20 Q1013
TAF LGZA 242000Z 2421/2506 34010KT 9999 FEW020 SCT080 
     PROB30 
     TEMPO 2500/2506 5000 RA SCT015 BKN070 
     PROB30 
     TEMPO 2503/2506 3000 TSRA FEW018CB SCT020 BKN070 
     BECMG 2500/2502 04008KT 
     BECMG 2504/2506 11008KT
       
LGAD 242020Z 00000KT 9999 FEW020 21/15 Q1013
TAF LGAD 242000Z 2421/2506 05008KT 9999 SCT025 SCT080 
     PROB40 
     TEMPO 2422/2506 7000 RA SCT025 BKN080 
     PROB40 
     TEMPO 2423/2506 5000 SHRA FEW018CB SCT025 BKN070
       
LGAL 241920Z 03007KT 9999 FEW035 18/14 Q1016
TAF LGAL 242000Z 2421/2506 04015KT 9999 FEW030 
     TEMPO 2421/2506 04015G25KT
       
LGAV 242020Z 02010KT 9999 SCT025 21/14 Q1015 NOSIG
TAF LGAV 241700Z 2418/2518 02015G25KT 9999 SCT030 BKN070 
     PROB40 
     TEMPO 2418/2421 5000 TSRA FEW018CB SCT025 BKN070 
     PROB30 
     TEMPO 2512/2518 5000 SHRA FEW018CB SCT025 BKN070 
     BECMG 2506/2508 02020G30KT
       
LGBL 241950Z 30004KT 9999 FEW015 SCT030 BKN070 20/16 Q1015
TAF LGBL 242000Z 2421/2506 26006KT 8000 FEW010 BKN020 BKN080 
     PROB40 
     TEMPO 2421/2506 5000 RA SCT010 BKN020
       
LGEL 242020Z 33006KT 9999 SCT070 22/15 Q1014
TAF LGEL 241700Z 2418/2518 33012KT 9999 FEW025 SCT070 
     TEMPO 2418/2421 33012G22KT 7000 RA SCT015 BKN070 
     PROB40 
     TEMPO 2418/2421 5000 TSRA FEW018CB SCT020 BKN070 
     TEMPO 2512/2518 33012G22KT 
     PROB30 
     TEMPO 2512/2518 5000 SHRA FEW018CB SCT020 BKN070
       
LGHI 241850Z VRB02KT CAVOK 24/17 Q1010
TAF LGHI 242000Z 2421/2506 02015KT 9999 FEW025
       
LGIO 241920Z /////KT 9999 SCT035TCU 21/15 Q1014
TAF LGIO 242000Z 2421/2506 VRB03KT 9999 SCT030 SCT080 
     PROB30 
     TEMPO 2421/2506 7000 SHRA FEW020CB BKN030 BKN080
       
LGIR 242020Z 32006KT 9999 SCT020 24/21 Q1013 NOSIG
TAF LGIR 241700Z 2418/2518 34010KT 9999 SCT020 
     PROB30 2512/2518 FEW018CB
       
LGKC 241650Z 06009KT 9999 FEW025 SCT030 23/18 Q1014
TAF LGKC 242000Z 2421/2506 06012KT 9999 FEW020 SCT030 
     PROB30 
     TEMPO 2500/2506 5000 RA SCT015 BKN025
       
LGKF 241950Z 33005KT 9999 FEW018 22/18 Q1013
TAF LGKF 242000Z 2421/2506 34012KT 9999 FEW018 SCT080 
     PROB30 
     TEMPO 2500/2506 5000 RA SCT015 BKN070 
     PROB30 
     TEMPO 2503/2506 3000 TSRA FEW018CB SCT020 BKN070 
     BECMG 2501/2503 12008KT
       
LGKL 242020Z 00000KT 9999 FEW020 SCT030 22/18 Q1013
TAF LGKL 242000Z 2421/2506 VRB03KT 9999 SCT025 SCT080 
     PROB40 
     TEMPO 2422/2506 7000 RA SCT025 BKN080 
     PROB30 
     TEMPO 2500/2506 5000 SHRA FEW018CB SCT025 BKN070
       
LGKO 242020Z 35009KT 9999 FEW016 23/18 Q1011
TAF LGKO 241700Z 2418/2518 31015KT 9999 FEW030
       
LGKP 242020Z AUTO 29018KT //// // ////// 24/20 Q1010 RE//
TAF LGKP 242000Z 2421/2506 30020KT 9999 FEW020
       
LGKR 242020Z 23002KT 9999 FEW030 SCT080 22/14 Q1012 NOSIG
TAF LGKR 241700Z 2418/2518 31012KT 9999 FEW020 SCT080 
     BECMG 2419/2421 11015KT 
     PROB30 
     TEMPO 2500/2512 5000 RA SCT020 BKN030 
     PROB40 
     TEMPO 2509/2518 4000 TSRA SCT015 FEW018CB BKN030
       
LGKV 242020Z 01004KT 9999 FEW030 19/15 Q1016
TAF LGKV 242000Z 2421/2506 10008KT 9999 FEW030 SCT080 
     PROB30 
     TEMPO 2421/2424 5000 SHRA FEW018CB SCT025 BKN070 
     BECMG 2421/2423 04010KT
       
LGKZ 241750Z 00000KT 9999 SCT025 SCT070 16/07 Q1017
LGLM 242020Z AUTO 04013KT //// // ////// 20/16 Q1015 RE//
TAF LGLM 242000Z 2421/2506 04015KT 9999 FEW020 
     TEMPO 2500/2506 04015G25KT
       
TAF LGLR 242000Z 2421/2506 VRB03KT 9999 FEW010 BKN020 BKN080 
     PROB30 
     TEMPO 2421/2506 8000 RA
       
LGMK 242020Z 36018KT 9999 FEW008 20/18 Q1013
TAF LGMK 242000Z 2421/2506 35018KT 9999 FEW008 FEW018 
     TEMPO 2421/2424 35018G28KT
       
LGMT 241950Z VRB03KT CAVOK 24/17 Q1012
TAF LGMT 242000Z 2421/2506 35012KT 9999 FEW025
       
LGNX 241550Z 02015KT 9999 FEW025 24/18 Q1012
LGPA 242020Z AUTO 35011KT //// // ////// 22/17 Q1013 RE//
LGPZ 241950Z VRB03KT 9999 FEW020TCU 23/17 Q1013 RMK SCT080 BLU
TAF LGPZ 241700Z 2418/2518 27015KT 9999 FEW020 SCT080 
     BECMG 2418/2420 08010KT 
     PROB30 
     TEMPO 2500/2512 5000 RA SCT020 BKN080 
     PROB40 
     TEMPO 2509/2518 4000 TSRA SCT012 FEW018CB BKN030
       
LGRP 242020Z 24010KT CAVOK 25/22 Q1009 NOSIG
TAF LGRP 241700Z 2418/2518 25018KT 9999 FEW020
       
LGRX 241950Z 05004KT 9999 FEW025 24/17 Q1013 RMK FEW080 BLU
TAF LGRX 242000Z 2421/2506 05010KT 9999 SCT025 SCT080 
     PROB40 
     TEMPO 2422/2506 7000 RA SCT025 BKN070 
     PROB40 
     TEMPO 2423/2506 5000 SHRA FEW018CB SCT025 BKN070
       
LGSA 242020Z 00000KT 9999 FEW025 23/20 Q1013
TAF LGSA 241700Z 2418/2518 02015KT 9999 SCT025 
     PROB30 2512/2518 FEW018CB
       
LGSK 241920Z 00000KT 9999 FEW020 21/15 Q1015
TAF LGSK 242000Z 2421/2506 04015KT 9999 FEW020 SCT060 
     PROB30 
     TEMPO 2500/2506 5000 RA SCT015 BKN030
       
LGSM 241850Z 36008KT 330V030 CAVOK 25/17 Q1010
TAF LGSM 242000Z 2421/2506 36012KT 9999 FEW025
       
LGSR 242020Z 34016KT 9999 FEW025 23/17 Q1012
TAF LGSR 241700Z 2418/2518 35016KT 9999 FEW018
       
TAF LGST 242000Z 2421/2506 29018KT 9999 SCT018
       
TAF LGSY 242000Z 2421/2506 02015KT 9999 FEW010 BKN020 
     TEMPO 2501/2506 02015G25KT
       
TAF LGTG 242000Z 2421/2506 30006KT 9999 FEW010 SCT020 SCT070 
     BECMG 2423/2501 FEW010 BKN020 BKN070 
     PROB30 
     TEMPO 2501/2506 8000 RA
       
TAF LGTL 242000Z 2421/2506 35008KT 9999 FEW010 SCT020 
     PROB30 
     TEMPO 2500/2506 5000 BR SCT008 SCT020
       
LGTS 242020Z VRB03KT 9999 FEW025 20/13 Q1016 NOSIG
TAF LGTS 241700Z 2418/2518 VRB03KT 9999 SCT030 
     BECMG 2502/2504 FEW015 BKN030 
     PROB40 
     TEMPO 2504/2518 7000 RA 
     PROB30 
     TEMPO 2515/2518 5000 SHRA FEW020CB BKN025 
     BECMG 2516/2518 34015KT
       
LGZA 241920Z 00000KT 9999 FEW020 SCT070 23/20 Q1013
TAF LGZA 242000Z 2421/2506 34010KT 9999 FEW020 SCT080 
     PROB30 
     TEMPO 2500/2506 5000 RA SCT015 BKN070 
     PROB30 
     TEMPO 2503/2506 3000 TSRA FEW018CB SCT020 BKN070 
     BECMG 2500/2502 04008KT 
     BECMG 2504/2506 11008KT
       
LGSM 241850Z 36008KT 330V030 CAVOK 25/17 Q1010
TAF LGSM 242000Z 2421/2506 36012KT 9999 FEW025
       
LGSR 242020Z 34016KT 9999 FEW025 23/17 Q1012
TAF LGSR 241700Z 2418/2518 35016KT 9999 FEW018
       
LGSK 241920Z 00000KT 9999 FEW020 21/15 Q1015
TAF LGSK 242000Z 2421/2506 04015KT 9999 FEW020 SCT060 
     PROB30 
     TEMPO 2500/2506 5000 RA SCT015 BKN030
       
TAF LGSY 242000Z 2421/2506 02015KT 9999 FEW010 BKN020 
     TEMPO 2501/2506 02015G25KT
       
LGSA 242020Z 00000KT 9999 FEW025 23/20 Q1013
TAF LGSA 241700Z 2418/2518 02015KT 9999 SCT025 
     PROB30 2512/2518 FEW018CB
       
TAF LGTG 242000Z 2421/2506 30006KT 9999 FEW010 SCT020 SCT070 
     BECMG 2423/2501 FEW010 BKN020 BKN070 
     PROB30 
     TEMPO 2501/2506 8000 RA
       
LGAD 242020Z 00000KT 9999 FEW020 21/15 Q1013
TAF LGAD 242000Z 2421/2506 05008KT 9999 SCT025 SCT080 
     PROB40 
     TEMPO 2422/2506 7000 RA SCT025 BKN080 
     PROB40 
     TEMPO 2423/2506 5000 SHRA FEW018CB SCT025 BKN070
       
LGAL 241920Z 03007KT 9999 FEW035 18/14 Q1016
TAF LGAL 242000Z 2421/2506 04015KT 9999 FEW030 
     TEMPO 2421/2506 04015G25KT
       
LGAV 242020Z 02010KT 9999 SCT025 21/14 Q1015 NOSIG
TAF LGAV 241700Z 2418/2518 02015G25KT 9999 SCT030 BKN070 
     PROB40 
     TEMPO 2418/2421 5000 TSRA FEW018CB SCT025 BKN070 
     PROB30 
     TEMPO 2512/2518 5000 SHRA FEW018CB SCT025 BKN070 
     BECMG 2506/2508 02020G30KT
       
LGBL 241950Z 30004KT 9999 FEW015 SCT030 BKN070 20/16 Q1015
TAF LGBL 242000Z 2421/2506 26006KT 8000 FEW010 BKN020 BKN080 
     PROB40 
     TEMPO 2421/2506 5000 RA SCT010 BKN020
       
LGEL 242020Z 33006KT 9999 SCT070 22/15 Q1014
TAF LGEL 241700Z 2418/2518 33012KT 9999 FEW025 SCT070 
     TEMPO 2418/2421 33012G22KT 7000 RA SCT015 BKN070 
     PROB40 
     TEMPO 2418/2421 5000 TSRA FEW018CB SCT020 BKN070 
     TEMPO 2512/2518 33012G22KT 
     PROB30 
     TEMPO 2512/2518 5000 SHRA FEW018CB SCT020 BKN070
       
LGHI 241850Z VRB02KT CAVOK 24/17 Q1010
TAF LGHI 242000Z 2421/2506 02015KT 9999 FEW025
       
LGIO 241920Z /////KT 9999 SCT035TCU 21/15 Q1014
TAF LGIO 242000Z 2421/2506 VRB03KT 9999 SCT030 SCT080 
     PROB30 
     TEMPO 2421/2506 7000 SHRA FEW020CB BKN030 BKN080
       
LGIR 242020Z 32006KT 9999 SCT020 24/21 Q1013 NOSIG
TAF LGIR 241700Z 2418/2518 34010KT 9999 SCT020 
     PROB30 2512/2518 FEW018CB
       
LGKC 241650Z 06009KT 9999 FEW025 SCT030 23/18 Q1014
TAF LGKC 242000Z 2421/2506 06012KT 9999 FEW020 SCT030 
     PROB30 
     TEMPO 2500/2506 5000 RA SCT015 BKN025
       
LGKF 241950Z 33005KT 9999 FEW018 22/18 Q1013
TAF LGKF 242000Z 2421/2506 34012KT 9999 FEW018 SCT080 
     PROB30 
     TEMPO 2500/2506 5000 RA SCT015 BKN070 
     PROB30 
     TEMPO 2503/2506 3000 TSRA FEW018CB SCT020 BKN070 
     BECMG 2501/2503 12008KT
       
LGKL 242020Z 00000KT 9999 FEW020 SCT030 22/18 Q1013
TAF LGKL 242000Z 2421/2506 VRB03KT 9999 SCT025 SCT080 
     PROB40 
     TEMPO 2422/2506 7000 RA SCT025 BKN080 
     PROB30 
     TEMPO 2500/2506 5000 SHRA FEW018CB SCT025 BKN070
       
LGKO 242020Z 35009KT 9999 FEW016 23/18 Q1011
TAF LGKO 241700Z 2418/2518 31015KT 9999 FEW030
       
LGKP 242020Z AUTO 29018KT //// // ////// 24/20 Q1010 RE//
TAF LGKP 242000Z 2421/2506 30020KT 9999 FEW020
       
LGKR 242020Z 23002KT 9999 FEW030 SCT080 22/14 Q1012 NOSIG
TAF LGKR 241700Z 2418/2518 31012KT 9999 FEW020 SCT080 
     BECMG 2419/2421 11015KT 
     PROB30 
     TEMPO 2500/2512 5000 RA SCT020 BKN030 
     PROB40 
     TEMPO 2509/2518 4000 TSRA SCT015 FEW018CB BKN030
       
LGKV 242020Z 01004KT 9999 FEW030 19/15 Q1016
TAF LGKV 242000Z 2421/2506 10008KT 9999 FEW030 SCT080 
     PROB30 
     TEMPO 2421/2424 5000 SHRA FEW018CB SCT025 BKN070 
     BECMG 2421/2423 04010KT
       
LGKZ 241750Z 00000KT 9999 SCT025 SCT070 16/07 Q1017
LGLM 242020Z AUTO 04013KT //// // ////// 20/16 Q1015 RE//
TAF LGLM 242000Z 2421/2506 04015KT 9999 FEW020 
     TEMPO 2500/2506 04015G25KT
       
TAF LGLR 242000Z 2421/2506 VRB03KT 9999 FEW010 BKN020 BKN080 
     PROB30 
     TEMPO 2421/2506 8000 RA
       
LGMK 242020Z 36018KT 9999 FEW008 20/18 Q1013
TAF LGMK 242000Z 2421/2506 35018KT 9999 FEW008 FEW018 
     TEMPO 2421/2424 35018G28KT
       
LGMT 241950Z VRB03KT CAVOK 24/17 Q1012
TAF LGMT 242000Z 2421/2506 35012KT 9999 FEW025
       
LGNX 241550Z 02015KT 9999 FEW025 24/18 Q1012
LGPA 242020Z AUTO 35011KT //// // ////// 22/17 Q1013 RE//
LGPZ 241950Z VRB03KT 9999 FEW020TCU 23/17 Q1013 RMK SCT080 BLU
TAF LGPZ 241700Z 2418/2518 27015KT 9999 FEW020 SCT080 
     BECMG 2418/2420 08010KT 
     PROB30 
     TEMPO 2500/2512 5000 RA SCT020 BKN080 
     PROB40 
     TEMPO 2509/2518 4000 TSRA SCT012 FEW018CB BKN030
       
LGRP 242020Z 24010KT CAVOK 25/22 Q1009 NOSIG
TAF LGRP 241700Z 2418/2518 25018KT 9999 FEW020
       
LGRX 241950Z 05004KT 9999 FEW025 24/17 Q1013 RMK FEW080 BLU
TAF LGRX 242000Z 2421/2506 05010KT 9999 SCT025 SCT080 
     PROB40 
     TEMPO 2422/2506 7000 RA SCT025 BKN070 
     PROB40 
     TEMPO 2423/2506 5000 SHRA FEW018CB SCT025 BKN070
       
LGSA 242020Z 00000KT 9999 FEW025 23/20 Q1013
TAF LGSA 241700Z 2418/2518 02015KT 9999 SCT025 
     PROB30 2512/2518 FEW018CB
       
LGSK 241920Z 00000KT 9999 FEW020 21/15 Q1015
TAF LGSK 242000Z 2421/2506 04015KT 9999 FEW020 SCT060 
     PROB30 
     TEMPO 2500/2506 5000 RA SCT015 BKN030
       
LGSM 241850Z 36008KT 330V030 CAVOK 25/17 Q1010
TAF LGSM 242000Z 2421/2506 36012KT 9999 FEW025
       
LGSR 242020Z 34016KT 9999 FEW025 23/17 Q1012
TAF LGSR 241700Z 2418/2518 35016KT 9999 FEW018
       
TAF LGST 242000Z 2421/2506 29018KT 9999 SCT018
       
TAF LGSY 242000Z 2421/2506 02015KT 9999 FEW010 BKN020 
     TEMPO 2501/2506 02015G25KT
       
TAF LGTG 242000Z 2421/2506 30006KT 9999 FEW010 SCT020 SCT070 
     BECMG 2423/2501 FEW010 BKN020 BKN070 
     PROB30 
     TEMPO 2501/2506 8000 RA
       
TAF LGTL 242000Z 2421/2506 35008KT 9999 FEW010 SCT020 
     PROB30 
     TEMPO 2500/2506 5000 BR SCT008 SCT020
       
LGTS 242020Z VRB03KT 9999 FEW025 20/13 Q1016 NOSIG
TAF LGTS 241700Z 2418/2518 VRB03KT 9999 SCT030 
     BECMG 2502/2504 FEW015 BKN030 
     PROB40 
     TEMPO 2504/2518 7000 RA 
     PROB30 
     TEMPO 2515/2518 5000 SHRA FEW020CB BKN025 
     BECMG 2516/2518 34015KT
       
LGZA 241920Z 00000KT 9999 FEW020 SCT070 23/20 Q1013
TAF LGZA 242000Z 2421/2506 34010KT 9999 FEW020 SCT080 
     PROB30 
     TEMPO 2500/2506 5000 RA SCT015 BKN070 
     PROB30 
     TEMPO 2503/2506 3000 TSRA FEW018CB SCT020 BKN070 
     BECMG 2500/2502 04008KT 
     BECMG 2504/2506 11008KT
       
LGZA 241920Z 00000KT 9999 FEW020 SCT070 23/20 Q1013
TAF LGZA 242000Z 2421/2506 34010KT 9999 FEW020 SCT080 
     PROB30 
     TEMPO 2500/2506 5000 RA SCT015 BKN070 
     PROB30 
     TEMPO 2503/2506 3000 TSRA FEW018CB SCT020 BKN070 
     BECMG 2500/2502 04008KT 
     BECMG 2504/2506 11008KT